Meteo pe oră la Abaete

Astăzi, 5 August, Joi

Timp Temperatura Precipitaţii Vânt Presiune Umiditate
00:00 +19°C° 0 mm 1 m/s 713 mmHg 61%
01:00 +18°C° 0 mm 1 m/s 713 mmHg 64%
02:00 +18°C° 0 mm 1 m/s 712 mmHg 67%
03:00 +16°C° 0 mm 1 m/s 712 mmHg 70%
04:00 +16°C° 0 mm 1 m/s 712 mmHg 73%
05:00 +15°C° 0 mm 1 m/s 712 mmHg 76%
06:00 +15°C° 0 mm 1 m/s 712 mmHg 78%
07:00 +16°C° 0 mm 2 m/s 713 mmHg 72%
08:00 +18°C° 0 mm 2 m/s 714 mmHg 65%
09:00 +20°C° 0 mm 2 m/s 715 mmHg 59%
10:00 +22°C° 0 mm 3 m/s 715 mmHg 51%
11:00 +25°C° 0 mm 3 m/s 715 mmHg 43%
12:00 +27°C° 0 mm 3 m/s 714 mmHg 35%
13:00 +27°C° 0 mm 3 m/s 714 mmHg 32%
14:00 +28°C° 0 mm 3 m/s 713 mmHg 30%
15:00 +28°C° 0 mm 3 m/s 712 mmHg 27%
16:00 +27°C° 0 mm 3 m/s 712 mmHg 29%
17:00 +26°C° 0 mm 2 m/s 712 mmHg 31%
18:00 +25°C° 0 mm 2 m/s 712 mmHg 33%
19:00 +24°C° 0 mm 3 m/s 712 mmHg 37%
20:00 +23°C° 0 mm 4 m/s 713 mmHg 40%
21:00 +22°C° 0 mm 5 m/s 713 mmHg 44%
22:00 +21°C° 0 mm 4 m/s 714 mmHg 50%
23:00 +20°C° 0 mm 4 m/s 714 mmHg 56%

Mâine, 6 August, Vineri

Timp Temperatura Precipitaţii Vânt Presiune Umiditate
00:00 +19°C° 0 mm 3 m/s 714 mmHg 61%
01:00 +19°C° 0 mm 2 m/s 713 mmHg 65%
02:00 +18°C° 0 mm 2 m/s 713 mmHg 69%
03:00 +18°C° 0 mm 1 m/s 713 mmHg 73%
04:00 +18°C° 0 mm 1 m/s 713 mmHg 72%
05:00 +19°C° 0 mm 1 m/s 713 mmHg 71%
06:00 +19°C° 0 mm 1 m/s 714 mmHg 70%
07:00 +19°C° 0 mm 2 m/s 714 mmHg 65%
08:00 +20°C° 0 mm 3 m/s 715 mmHg 61%
09:00 +21°C° 0 mm 4 m/s 715 mmHg 57%
10:00 +22°C° 0 mm 4 m/s 715 mmHg 51%
11:00 +25°C° 0 mm 4 m/s 715 mmHg 45%
12:00 +26°C° 0 mm 4 m/s 715 mmHg 39%
13:00 +26°C° 0 mm 3 m/s 714 mmHg 37%
14:00 +27°C° 0 mm 3 m/s 713 mmHg 35%
15:00 +27°C° 0 mm 3 m/s 713 mmHg 33%
16:00 +26°C° 0 mm 3 m/s 713 mmHg 35%
17:00 +25°C° 0 mm 3 m/s 712 mmHg 37%
18:00 +23°C° 0 mm 2 m/s 712 mmHg 40%
19:00 +22°C° 0 mm 3 m/s 713 mmHg 41%
20:00 +21°C° 0 mm 3 m/s 713 mmHg 43%
21:00 +21°C° 0 mm 4 m/s 713 mmHg 45%
22:00 +20°C° 0 mm 3 m/s 713 mmHg 49%
23:00 +19°C° 0 mm 3 m/s 713 mmHg 54%

Poimâine, 7 August, Sâmbătă

Timp Temperatura Precipitaţii Vânt Presiune Umiditate
00:00 +18°C° 0 mm 2 m/s 713 mmHg 59%
01:00 +17°C° 0 mm 2 m/s 713 mmHg 62%
02:00 +17°C° 0 mm 2 m/s 713 mmHg 65%
03:00 +16°C° 0 mm 1 m/s 712 mmHg 69%
04:00 +16°C° 0 mm 1 m/s 712 mmHg 72%
05:00 +15°C° 0 mm 1 m/s 713 mmHg 75%
06:00 +15°C° 0 mm 2 m/s 713 mmHg 79%
07:00 +17°C° 0 mm 2 m/s 713 mmHg 72%
08:00 +18°C° 0 mm 3 m/s 714 mmHg 65%
09:00 +20°C° 0 mm 4 m/s 715 mmHg 58%
10:00 +21°C° 0 mm 4 m/s 714 mmHg 51%
11:00 +23°C° 0 mm 4 m/s 714 mmHg 44%
12:00 +25°C° 0 mm 4 m/s 714 mmHg 38%
13:00 +26°C° 0 mm 4 m/s 713 mmHg 34%
14:00 +27°C° 0 mm 4 m/s 712 mmHg 30%
15:00 +27°C° 0 mm 4 m/s 711 mmHg 26%
16:00 +26°C° 0 mm 4 m/s 711 mmHg 30%
17:00 +24°C° 0 mm 3 m/s 711 mmHg 34%
18:00 +21°C° 0 mm 3 m/s 711 mmHg 38%
19:00 +20°C° 0 mm 3 m/s 712 mmHg 43%
20:00 +19°C° 0 mm 3 m/s 712 mmHg 49%
21:00 +18°C° 0 mm 3 m/s 713 mmHg 54%
22:00 +18°C° 0 mm 3 m/s 713 mmHg 61%
23:00 +17°C° 0 mm 2 m/s 712 mmHg 68%

8 August, Duminică

Timp Temperatura Precipitaţii Vânt Presiune Umiditate
00:00 +16°C° 0 mm 2 m/s 712 mmHg 75%
01:00 +15°C° 0 mm 1 m/s 712 mmHg 79%
02:00 +14°C° 0 mm 1 m/s 712 mmHg 84%
03:00 +14°C° 0 mm 1 m/s 711 mmHg 89%
04:00 +13°C° 0 mm 1 m/s 712 mmHg 91%
05:00 +13°C° 0 mm 1 m/s 712 mmHg 92%
06:00 +13°C° 0 mm 1 m/s 712 mmHg 94%
07:00 +15°C° 0 mm 2 m/s 713 mmHg 84%
08:00 +17°C° 0 mm 2 m/s 713 mmHg 73%
09:00 +20°C° 0 mm 3 m/s 714 mmHg 63%
10:00 +22°C° 0 mm 3 m/s 714 mmHg 55%
11:00 +25°C° 0 mm 3 m/s 713 mmHg 46%
12:00 +27°C° 0 mm 3 m/s 713 mmHg 38%
13:00 +27°C° 0 mm 3 m/s 712 mmHg 36%
14:00 +27°C° 0 mm 2 m/s 711 mmHg 34%
15:00 +27°C° 0 mm 2 m/s 711 mmHg 32%
16:00 +26°C° 0 mm 2 m/s 711 mmHg 35%
17:00 +25°C° 0 mm 2 m/s 711 mmHg 38%
18:00 +23°C° 0 mm 2 m/s 710 mmHg 42%
19:00 +23°C° 0 mm 2 m/s 711 mmHg 42%
20:00 +22°C° 0 mm 3 m/s 711 mmHg 43%
21:00 +22°C° 0 mm 3 m/s 712 mmHg 43%
22:00 +20°C° 0 mm 3 m/s 712 mmHg 50%
23:00 +19°C° 0 mm 2 m/s 712 mmHg 56%

9 August, Luni

Timp Temperatura Precipitaţii Vânt Presiune Umiditate
00:00 +18°C° 0 mm 2 m/s 711 mmHg 63%
01:00 +18°C° 0 mm 1 m/s 711 mmHg 67%
02:00 +16°C° 0 mm 1 m/s 711 mmHg 71%
03:00 +14°C° 0 mm 0 m/s 711 mmHg 75%
04:00 +14°C° 0 mm 0 m/s 711 mmHg 78%
05:00 +14°C° 0 mm 0 m/s 711 mmHg 80%
06:00 +13°C° 0 mm 0 m/s 711 mmHg 82%
07:00 +18°C° 0 mm 1 m/s 712 mmHg 73%
08:00 +19°C° 0 mm 2 m/s 713 mmHg 63%
09:00 +21°C° 0 mm 2 m/s 713 mmHg 53%
10:00 +24°C° 0 mm 2 m/s 713 mmHg 46%
11:00 +26°C° 0 mm 2 m/s 713 mmHg 38%
12:00 +29°C° 0 mm 2 m/s 713 mmHg 30%
13:00 +29°C° 0 mm 2 m/s 712 mmHg 28%
14:00 +30°C° 0 mm 2 m/s 711 mmHg 26%
15:00 +30°C° 0 mm 1 m/s 710 mmHg 24%
16:00 +28°C° 0 mm 1 m/s 710 mmHg 27%
17:00 +26°C° 0 mm 1 m/s 710 mmHg 30%
18:00 +24°C° 0 mm 1 m/s 710 mmHg 34%
19:00 +23°C° 0 mm 1 m/s 710 mmHg 36%
20:00 +22°C° 0 mm 1 m/s 710 mmHg 38%
21:00 +21°C° 0 mm 1 m/s 711 mmHg 40%
22:00 +20°C° 0 mm 1 m/s 711 mmHg 43%
23:00 +20°C° 0 mm 1 m/s 711 mmHg 45%

10 August, Marţi

Timp Temperatura Precipitaţii Vânt Presiune Umiditate
00:00 +19°C° 0 mm 1 m/s 711 mmHg 47%
01:00 +18°C° 0 mm 1 m/s 711 mmHg 51%
02:00 +16°C° 0 mm 1 m/s 710 mmHg 55%
03:00 +16°C° 0 mm 1 m/s 710 mmHg 60%
04:00 +15°C° 0 mm 1 m/s 710 mmHg 63%
05:00 +15°C° 0 mm 1 m/s 710 mmHg 67%
06:00 +14°C° 0 mm 0 m/s 710 mmHg 71%
07:00 +18°C° 0 mm 1 m/s 711 mmHg 63%
08:00 +20°C° 0 mm 1 m/s 712 mmHg 56%
09:00 +23°C° 0 mm 2 m/s 712 mmHg 48%
10:00 +25°C° 0 mm 2 m/s 712 mmHg 41%
11:00 +28°C° 0 mm 2 m/s 712 mmHg 35%
12:00 +30°C° 0 mm 2 m/s 712 mmHg 28%
13:00 +31°C° 0 mm 2 m/s 711 mmHg 26%
14:00 +31°C° 0 mm 1 m/s 710 mmHg 24%
15:00 +32°C° 0 mm 1 m/s 709 mmHg 22%
16:00 +30°C° 0 mm 1 m/s 709 mmHg 25%
17:00 +27°C° 0 mm 1 m/s 709 mmHg 28%
18:00 +23°C° 0 mm 0 m/s 708 mmHg 31%
19:00 +22°C° 0 mm 0 m/s 709 mmHg 33%
20:00 +21°C° 0 mm 0 m/s 709 mmHg 35%
21:00 +20°C° 0 mm 0 m/s 709 mmHg 37%
22:00 +22°C° 0 mm 1 m/s 709 mmHg 39%
23:00 +21°C° 0 mm 1 m/s 709 mmHg 41%
Arată mai mult

Formular de consimțământ

Meteoprog și furnizorii noștri de servicii pot stoca și accesa date personale, precum cookies, identificatori de dispozitiv sau alte tehnologii similare pe dispozitivul dumneavoastră și procesa astfel de date pentru a personaliza conținutul și reclamele, dar și pentru a oferi caracteristici de social media și pentru a analiza traficul.

  • Stocarea și/sau accesarea informațiilor pe dispozitivul dumneavoastră

    Cookies, identificatori de dispozitiv sau alte informații pot fi stocate sau accesate pe dispozitiv în scopurile indicate mai sus.

  • Reclame și conținut personalizat, evaluarea reclamelor și a conținutului, informații despre audiențe și dezvoltarea produselor

    Reclamele și conținutul pot fi personalizate pe baza unui profil. Pot fi adăugate date suplimentare pentru a personaliza mai bine reclamele și conținutul. Performanța reclamelor și conținutului poate fi măsurată. Pot fi obținute informații despre utilizatorii care au văzut reclamele și conținutul. Aceste date pot fi utilizate pentru a dezvolta sau îmbunătăți experiența utilizatorilor, sistemele și software-ul.

Dând clic pe ‘Sunt de acord’, permiteți utilizarea cookie-urilor menționate, a identificatorilor de dispozitiv, balizelor web sau altor tehnologii similare. Setările pot fi modificate din browser-ul dispozitivului dumneavoastră.

În anumite scopuri, interesele legitime pot prima asupra consimțământului. Puteți citi mai multe informații în acest sens în Politica privind Confidențialitatea Datelor și Cookie.